Back to catalog

STARLINK-37150

AliveCommunicationsSSO
NORAD 68315·PAYLOAD·🇺🇸 United States

Launched Mar 20, 2026 from Vandenberg Space Force Base

Loading…

Next Passes (next 24 hours)

TLE

FreshSource: CelesTrak SupGP

Epoch: Sep 14, 2026, 14:32 UTC

1 68315C 26057X   26257.60604167  .00017866  00000+0  55509-3 0  2576
2 68315  97.2856  23.1424 0001368  92.4484 282.4788 15.33401807    19

Track STARLINK-37150 in real time with AllMySat

Download on the App Store